Flag for Cyprus Weather past 2 weeks in Nicosia, Cyprus

Now
63 °F

Passing clouds.


Feels Like: 63 °F
Forecast: 60 / 74 °F
Wind: 6 mph from Southwest

Location: Ercan

Current Time: May 29, 2015 at 3:30:00 AM

Latest Report: May 29, 2015 at 1:50 AM


Visibility: N/A

Pressure: 29.68 "Hg

Humidity: 73%

Dew point: 54 °F

Location of NicosiaLocation

Historic Weather in Nicosia — Graph

°F

Nicosia temperature yesterday

Maximum temperature yesterday: 88 °F (at 12:20 PM)
Minimum temperature yesterday: 63 °F (at 1:50 AM)
Average temperature yesterday: 75 °F

Past Weeks' High & Low Weather Summary

 TemperatureHumidityPressure
High100 °F (May 19, 1:50 PM)94% (May 16, 3:20 AM)30.21 "Hg (May 16, 3:20 AM)
Low52 °F (May 16, 5:20 AM)9% (May 19, 2:20 PM)29.65 "Hg (May 27, 6:20 PM)
Average75 °F52%29.88 "Hg
* Reported May 14 12:20 AM — May 29 12:55 AM, Nicosia, Weather by CustomWeather, © 2015

Note: Actual official high and low records may vary slightly from our data, if they occured in-between our weather recording intervals... More about our weather records

Advertising

Nicosia weather history for previous 24 hours

 ConditionsComfort  
Time TempWeatherWind HumidityBarometerVisibility
12:55 AM
Fri, May 29
64 °FPassing clouds.6 mph73%29.71 "HgN/A
12:50 AM64 °FPassing clouds.5 mph73%29.71 "HgN/A
12:20 AM66 °FPassing clouds.8 mph68%29.71 "HgN/A
11:50 PM
Thu, May 28
68 °FPassing clouds.12 mph69%29.71 "HgN/A
11:20 PM68 °FPassing clouds.14 mph69%29.71 "HgN/A
10:50 PM68 °FPassing clouds.13 mph69%29.71 "HgN/A
10:20 PM68 °FPassing clouds.13 mph69%29.71 "HgN/A
9:20 PM70 °FPassing clouds.22 mph64%29.68 "HgN/A
8:50 PM70 °FPassing clouds.20 mph64%29.68 "HgN/A
8:20 PM72 °FPassing clouds.22 mph65%29.68 "HgN/A
7:50 PM73 °FPassing clouds.20 mph57%29.65 "HgN/A
7:20 PM73 °FPassing clouds.22 mph57%29.65 "HgN/A
6:50 PM75 °FPassing clouds.20 mph50%29.65 "Hg5 mi
6:20 PM77 °FPassing clouds.23 mph44%29.65 "Hg5 mi
5:50 PM79 °FPassing clouds.23 mph39%29.65 "Hg5 mi
4:50 PM82 °FPassing clouds.18 mph32%29.65 "Hg5 mi
4:20 PM84 °FPassing clouds.17 mph31%29.65 "Hg5 mi
3:50 PM86 °FPassing clouds.16 mph29%29.65 "Hg5 mi
3:20 PM86 °FPassing clouds.17 mph29%29.68 "Hg5 mi
2:50 PM86 °FPassing clouds.17 mph31%29.68 "Hg5 mi
2:20 PM86 °FPassing clouds.16 mph33%29.68 "Hg5 mi
1:50 PM86 °FPassing clouds.17 mph33%29.68 "Hg5 mi
1:20 PM86 °FPassing clouds.14 mph29%29.68 "Hg5 mi
12:50 PM86 °FPassing clouds.14 mph29%29.68 "Hg5 mi
12:20 PM88 °FPassing clouds.14 mph27%29.71 "HgN/A
11:50 AM86 °FSunny.13 mph27%29.71 "Hg10 mi
11:20 AM86 °FPassing clouds.13 mph27%29.71 "Hg5 mi
10:50 AM84 °FPassing clouds.10 mph27%29.71 "Hg5 mi
10:20 AM84 °FSunny.9 mph29%29.71 "Hg10 mi
9:50 AM81 °FSunny.7 mph42%29.71 "Hg10 mi
9:20 AM79 °FSunny.8 mph48%29.71 "Hg10 mi
8:50 AM75 °FSunny.8 mph61%29.71 "Hg10 mi
8:20 AM73 °FPassing clouds.9 mph69%29.71 "HgN/A
7:50 AM72 °FPassing clouds.9 mph78%29.71 "HgN/A
7:20 AM70 °FClear.9 mph83%29.71 "Hg5 mi
6:50 AM66 °FClear.7 mph88%29.71 "Hg4 mi
6:20 AM64 °FClear.6 mph94%29.71 "Hg4 mi
5:50 AM64 °FClear.5 mph88%29.71 "Hg4 mi
5:20 AM66 °FPassing clouds.7 mph88%29.71 "HgN/A
4:50 AM66 °FClear.8 mph88%29.68 "Hg10 mi
4:20 AM68 °FClear.13 mph83%29.68 "Hg10 mi
3:50 AM68 °FClear.15 mph78%29.68 "Hg10 mi
3:20 AM68 °FClear.9 mph69%29.68 "Hg10 mi
Weather by CustomWeather, © 2015

See weather overviewHow to use our weather pages